Regional Weather Roundup
Issued by NWS

Home | Current Version | Previous Version | Graphics & Text | Print | Product List | Glossary On
Versions: 1 2 3 4 5 6 7 8 9 10 11 12 13 14 15 16 17 18 19 20 21 22 23 24 25 26 27 28 29 30 31 32 33 34 35 36 37 38 39 40 41 42 43 44 45 46 47 48 49 50
896
ASUS43 KBIS 171702
RWRND

NORTH DAKOTA REGIONAL WEATHER ROUNDUP
NATIONAL WEATHER SERVICE BISMARCK ND
1100 AM CST SUN DEC 17 2017

NOTE: "FAIR" INDICATES FEW OR NO CLOUDS BELOW 12,000 FEET WITH NO
SIGNIFICANT WEATHER AND/OR OBSTRUCTIONS TO VISIBILITY.


NDZ001>003-009>011-017-171800-
NORTHWEST NORTH DAKOTA

CITY           SKY/WX    TMP DP  RH WIND       PRES   REMARKS
WILLISTON      SUNNY     25  21  85 CALM      29.89F
MINOT          SUNNY     31  20  63 S8        29.91F
MINOT AFB      SUNNY     32  21  64 SW10      29.90S
$$

NDZ018>021-031>035-040>046-171800-
SOUTHWEST NORTH DAKOTA

CITY           SKY/WX    TMP DP  RH WIND       PRES   REMARKS
BISMARCK       MOSUNNY   27  22  81 CALM      30.00F
DICKINSON      PTSUNNY   29  24  82 S9        29.90F
GARRISON         N/A     29  24  82 S10       29.94F WCI  20
HETTINGER ARPT CLOUDY    29  23  78 S10       29.96F WCI  20
$$

NDZ004>008-012>016-024-026-027-054-171800-
NORTHEAST NORTH DAKOTA

CITY           SKY/WX    TMP DP  RH WIND       PRES   REMARKS
GRAND FORKS    MOSUNNY   19  17  92 S5        30.00S WCI  12
GRND FRKS AFB  PTSUNNY   27  17  68 W13       29.99S WCI  16
DEVILS LAKE    SUNNY     23  19  85 SW9       29.97F WCI  13
$$

NDZ022-023-025-028>030-036>039-047>053-171800-
SOUTHEAST NORTH DAKOTA

CITY           SKY/WX    TMP DP  RH WIND       PRES   REMARKS
FARGO          MOSUNNY   27  25  92 S6        30.03F FOG
JAMESTOWN      SUNNY     30  25  81 W5        29.99F
$$





USA.gov is the U.S. government's official web portal to all federal, state and local government web resources and services.